Regional Weather Roundup
Issued by NWS

Home | Current Version | Previous Version | Graphics & Text | Print | Product List | Glossary On
Versions: 1 2 3 4 5 6 7 8 9 10 11 12 13 14 15 16 17 18 19 20 21 22 23 24 25 26 27 28 29 30 31 32 33 34 35 36 37 38 39 40 41 42 43 44 45 46 47 48 49 50
000
ASUS43 KMKX 271120
RWRWI

WISCONSIN REGIONAL WEATHER ROUNDUP
NATIONAL WEATHER SERVICE MILWAUKEE/SULLIVAN WI
600 AM CDT FRI MAR 27 2015

NOTE: "FAIR" INDICATES FEW OR NO CLOUDS BELOW 12,000 FEET WITH NO
SIGNIFICANT WEATHER AND/OR OBSTRUCTIONS TO VISIBILITY.

WIZ001-002-006>008-014>016-023>028-271200-
NORTHWEST WISCONSIN

CITY           SKY/WX    TMP DP  RH WIND       PRES   REMARKS
SUPERIOR ARPT  CLEAR     16   6  65 N3        30.29R
ASHLAND        CLEAR     14   6  70 NW7       30.26R WCI   4
HAYWARD        CLEAR     11   6  81 CALM      30.23R
SIREN          CLEAR      8   1  75 CALM      30.27R
CUMBERLAND     CLEAR     14   7  73 N5        30.23R WCI   6
RICE LAKE      CLEAR     16   7  66 NW3       30.25S
CHETEK         CLEAR     15   7  70 CALM      30.23S
LADYSMITH      CLEAR     15   8  75 N5        30.23R WCI   7
EAU CLAIRE     CLEAR     17   5  59 N5        30.23R WCI  10
MENOMONIE      CLEAR     16   8  68 N6        30.25R WCI   8
NEW RICHMOND   CLEAR     15   7  68 N3        30.26R
OSCEOLA        CLEAR     14   7  75 CALM      30.30R
$$

WIZ003>005-009-010-017-018-271200-
NORTH CENTRAL WISCONSIN

CITY           SKY/WX    TMP DP  RH WIND       PRES   REMARKS
MANITOWISH WTR MOCLDY     4   2  90 CALM      30.16R
ARBOR VITAE    PTCLDY     7   3  86 CALM      30.15S
WOODRUFF       PTCLDY     7   3  86 CALM      30.15S
RHINELANDER    CLEAR      9   5  84 NW3       30.15R
EAGLE RIVER    PTCLDY     3  -1  83 CALM      30.15R
LAND O LAKES   CLEAR     -1  -4  85 CALM      30.15R
PHILLIPS       CLEAR      8   4  86 CALM      30.17R
TOMAHAWK       PTCLDY     0  -3  85 CALM      30.17S
MEDFORD        PTCLDY     7   4  85 CALM      30.17S
MERRILL        PTCLDY     7   4  89 CALM      30.18R
$$

WIZ029-030-035-036-043>047-271200-
CENTRAL WISCONSIN

CITY           SKY/WX    TMP DP  RH WIND       PRES   REMARKS
WAUSAU         PTCLDY    13   7  77 N3        30.17R
MOSINEE        CLEAR     12   7  79 N5        30.19R WCI   4
MARSHFIELD     CLEAR     15   7  70 NE7       30.18R WCI   5
STEVENS POINT  CLEAR     12   4  73 N3        30.19R
WAUPACA        CLEAR     17   8  67 N6        30.20R WCI   9
WAUTOMA        MOCLDY    17   8  67 N6        30.20R WCI   9
WISC RAPIDS    CLEAR     15   6  67 N8        30.21R WCI   4
CAMP DOUGLAS   CLEAR     10   9  93 W5        30.20R WCI   2
$$

WIZ011>013-019>022-031-037>040-048>050-271200-
NORTHEAST WISCONSIN

CITY           SKY/WX    TMP DP  RH WIND       PRES   REMARKS
ANTIGO         CLEAR      7   3  84 NW3       30.15R
SHAWANO        FAIR      16   7  66 NW7       30.20R WCI   7
OCONTO         CLEAR     15   7  70 N7        30.18R WCI   5
STURGEON BAY   CLEAR     14   7  73 N10       30.18R WCI   1
GREEN BAY      CLEAR     18   9  68 N10       30.18R WCI   6
MANITOWOC      CLEAR     18  11  74 N14         N/A  WCI   4
APPLETON       CLEAR     16   7  67 NW9       30.17R WCI   4
CLINTONVILLE   CLEAR     18   7  62 N7        30.19R WCI   8
OSHKOSH        CLEAR     18   7  62 N12       30.17R WCI   5
$$

WIZ032>034-041-042-053>061-271200-
SOUTHWEST WISCONSIN

CITY           SKY/WX    TMP DP  RH WIND       PRES   REMARKS
LA CROSSE      CLEAR     19   9  65 N3        30.23R
SPARTA         CLEAR      9   6  87 CALM      30.22S
VIROQUA        CLEAR     15   7  69 N3        30.18R
BOSCOBEL       CLEAR     20   6  55 N5        30.22R WCI  13
PRAIRIE DU CHI CLEAR     22   5  49 CALM      30.23R
PLATTEVILLE    CLEAR     19   9  66 N10       30.18R WCI   7
$$

WIZ056-057-062-063-064-067-068-271200-
SOUTH CENTRAL WISCONSIN

CITY           SKY/WX    TMP DP  RH WIND       PRES   REMARKS
REEDSBURG      CLEAR     16   6  66 NW3       30.19S
BARABOO/DELLS  CLEAR     15   6  67 NW3       30.19R
LONE ROCK      CLEAR     18   5  57 N5        30.21R WCI  11
MINERAL POINT  CLEAR     18   5  57 N7        30.16R WCI   8
MADISON        CLEAR     17   7  64 N7        30.18R WCI   8
MIDDLETON      CLEAR     20   9  62 N6        30.18R WCI  12
WATERTOWN      CLEAR     18   7  62 N8        30.16R WCI   7
MONROE         CLEAR     19  10  68 N10       30.14R WCI   8
JANESVILLE     PTCLDY    21   9  58 N13       30.15R WCI   9
$$

WIZ051-052-058>065-066-070>072-271200-
SOUTHEAST WISCONSIN

CITY           SKY/WX    TMP DP  RH WIND       PRES   REMARKS
MILWAUKEE      PTCLDY    19   3  49 N12G22    30.14R WCI   7
WAUKESHA       CLEAR     16   3  57 NW6       30.15R WCI   7
MILWAUKEE/TIMM CLEAR     19   3  49 N10       30.16R WCI   8
RACINE         MOCLDY    20   5  52 N12       30.15R WCI   8
BURLINGTON     CLOUDY    19   3  49 N12G22    30.14R WCI   7
KENOSHA        CLOUDY    21   8  57 N16G22    30.13R WCI   7
FOND DU LAC    CLEAR     18   7  62 N8        30.17R WCI   8
SHEBOYGAN      CLEAR     18   8  65 NW9       30.15R WCI   7
WEST BEND      CLEAR     18   5  57 NW9       30.15R WCI   6
JUNEAU         CLEAR     16   7  66 NW3       30.17R
$$

LSZ147-162-271200-
LAKE SUPERIOR

STATION/POSITION TIME  TEMP    WIND        PRES    WAVE
                       AIR SEA DIR/SP/G            HT/PER
                 (UTC) (F)     (DEG/KT/KT) (MB)    (FT/S)
DEVILS ISLAND    1100   20      50/ 13/ 15 1026.4R
PORT WING        1000   22      20/ 10/ 15 1024.7S
SAXON HARBOR     0900   23      20/ 11/ 15 1023.4
$$

LMZ867-665-643>646-271200-
LAKE MICHIGAN

STATION/POSITION TIME  TEMP    WIND        PRES    WAVE
                       AIR SEA DIR/SP/G            HT/PER
                 (UTC) (F)     (DEG/KT/KT) (MB)    (FT/S)
NORTHPORT PIER   1011   18      20/ 11/ 16 1021.0R
SISTER BAY       1017   17     360/ 15/ 17   N/A
KEWAUNEE LAKESHO 1000   18     330/  8/ 11 1019.9R
SHEBOYGAN LAKESH 1100   19     320/ 13/ 15 1022.3R
PORT WASHINGTON  1000   20     330/  7/ 10 1021.3R
MILWAUKEE LAKESH 1100   20     330/ 12/ 16   N/A
KENOSHA   LAKESH 1100   22     340/ 18/ 23 1020.3R
$$

TC  - TEMPERATURE IN CELSIUS
VSB - VISIBILITY IN STATUTE MILES
WCI - WIND CHILL INDEX
HX  - HEAT INDEX




USA.gov is the U.S. government's official web portal to all federal, state and local government web resources and services.